FW6401 Weather Reports


time (UTC)temp
C
wind
direction
speed
KPH
gust
KPH
rain 1hr
cm
rain 24hr
cm
rain mn
cm
humidity
%
barometer
mb
20260507170056 11 250 19.3 30.6 0.00 1.85 0.03 55 1006.5
20260507164554 10 265 9.7 29.0 0.00 1.98 0.03 64 1006.8
20260507163048 9 232 11.3 32.2 0.00 1.98 0.03 72 1007.1
20260507161547 9 227 3.2 17.7 0.00 1.98 0.03 75 1007.5
20260507160051 8 310 12.9 20.9 0.00 1.98 0.03 74 1007.6
20260507154542 8 284 11.3 24.1 0.00 2.08 0.03 71 1007.7
20260507153046 7 312 9.7 20.9 0.00 2.08 0.03 78 1007.9
20260507151539 6 256 6.4 17.7 0.00 2.08 0.03 85 1008.0
20260507150037 6 254 9.7 17.7 0.00 2.08 0.03 87 1007.9
20260507144536 6 264 11.3 20.9 0.00 2.08 0.03 86 1008.1
20260507143036 6 268 11.3 17.7 0.00 2.08 0.03 82 1007.8
20260507141535 7 272 6.4 16.1 0.00 2.08 0.03 82 1007.8
20260507140043 7 275 4.8 12.9 0.00 2.08 0.03 83 1007.7
20260507134533 7 288 6.4 11.3 0.00 2.13 0.03 83 1007.7
20260507133032 6 320 4.8 9.7 0.00 2.13 0.03 85 1007.8
20260507131532 6 319 6.4 9.7 0.00 2.13 0.03 88 1008.0
20260507130030 6 336 3.2 8.0 0.00 2.13 0.03 88 1007.9
20260507124529 6 336 3.2 6.4 0.00 2.13 0.03 88 1007.9
20260507123033 6 355 1.6 8.0 0.00 2.13 0.03 88 1007.9
20260507121536 6 342 4.8 8.0 0.00 2.13 0.03 89 1008.0
20260507120022 5 140 0.0 0.0 0.00 2.13 0.03 95 1007.9
20260507114521 5 138 0.0 0.0 0.00 2.13 0.03 97 1007.9
20260507113031 5 138 0.0 0.0 0.00 2.13 0.03 98 1007.9
20260507111523 4 138 0.0 0.0 0.00 2.13 0.03 98 1008.1
20260507110023 4 138 0.0 0.0 0.00 2.13 0.03 98 1008.1
20260507104519 3 138 0.0 0.0 0.03 2.13 0.03 98 1008.2
20260507103018 3 138 0.0 4.8 0.03 2.13 0.03 98 1007.9
20260507101526 3 138 1.6 3.2 0.03 2.13 0.03 98 1008.0
20260507100021 2 138 1.6 4.8 0.03 2.13 0.03 97 1007.9
20260507094521 3 138 0.0 4.8 0.00 2.11 0.00 98 1007.6
20260507093032 3 127 3.2 4.8 0.00 2.11 0.00 98 1007.7
20260507091513 3 127 1.6 3.2 0.00 2.11 0.00 98 1007.5
20260507090016 3 127 0.0 4.8 0.00 2.11 0.00 98 1007.8
20260507084509 3 319 0.0 3.2 0.00 2.11 0.00 98 1007.8
20260507083013 3 319 0.0 0.0 0.00 2.11 0.00 97 1007.5
20260507081506 3 319 0.0 0.0 0.00 2.11 0.00 97 1007.2
20260507080006 3 319 0.0 0.0 0.00 2.11 0.00 98 1007.3
20260507074505 3 318 0.0 0.0 0.00 2.11 0.00 97 1007.2
20260507073111 3 318 0.0 0.0 0.00 2.11 0.00 98 1007.4
20260507071611 3 318 0.0 0.0 0.00 2.11 0.00 97 1007.6
20260507070057 4 318 0.0 0.0 0.00 2.11 0.00 97 1007.6
20260507064558 4 319 0.0 3.2 0.00 2.18 0.00 97 1007.5
20260507063058 5 318 0.0 4.8 0.00 2.18 0.00 97 1007.5
20260507061553 5 301 3.2 6.4 0.00 2.18 0.00 97 1007.6
20260507060051 5 344 1.6 11.3 0.00 2.18 0.00 97 1007.2
20260507054558 5 317 3.2 12.9 0.00 2.29 0.00 97 1007.5
20260507053049 5 290 4.8 11.3 0.00 2.29 0.00 98 1007.4
20260507051547 5 308 6.4 14.5 0.00 2.29 0.00 98 1007.4
20260507050044 5 300 6.4 14.5 0.00 2.29 0.00 98 1007.3
20260507044543 5 333 6.4 14.5 0.00 2.29 0.00 97 1007.3
20260507043041 5 277 3.2 6.4 0.00 2.29 0.00 98 1007.3
20260507041539 5 279 0.0 0.0 0.00 2.29 0.00 97 1007.3
20260507040040 5 279 0.0 0.0 0.03 2.29 0.00 97 1007.5
20260507034535 5 279 0.0 1.6 0.05 2.29 2.29 97 1007.5
20260507033038 5 279 0.0 6.4 0.10 2.29 2.29 97 1007.9
20260507031534 5 264 1.6 11.3 0.13 2.29 2.29 98 1008.1
20260507030034 5 273 3.2 17.7 0.13 2.26 2.26 98 1008.0
20260507024534 6 314 3.2 12.9 0.10 2.24 2.24 98 1008.1
20260507023031 6 304 1.6 6.4 0.08 2.18 2.18 98 1008.2
20260507021529 6 317 3.2 9.7 0.08 2.16 2.16 98 1008.0
20260507020030 6 311 4.8 12.9 0.08 2.13 2.13 98 1007.8
20260507014527 6 265 8.0 14.5 0.10 2.13 2.13 98 1007.7
20260507013034 6 313 8.0 12.9 0.10 2.11 2.11 97 1007.6
20260507011535 6 291 4.8 9.7 0.10 2.08 2.08 98 1007.3
20260507010025 6 279 4.8 11.3 0.08 2.06 2.06 98 1007.1
20260507004522 6 321 6.4 9.7 0.05 2.03 2.03 98 1006.7
20260507003021 6 290 3.2 6.4 0.05 2.01 2.01 98 1006.8
20260507001521 6 300 3.2 11.3 0.03 1.98 1.98 98 1006.5
20260507000020 6 298 4.8 12.9 0.03 1.98 1.98 98 1006.6
20260506234519 7 338 8.0 14.5 0.05 1.98 1.98 98 1006.3
20260506233017 7 331 6.4 9.7 0.03 1.96 1.96 98 1006.1
20260506231516 7 174 0.0 4.8 0.13 1.96 1.96 98 1006.0
20260506230016 7 174 1.6 4.8 0.23 1.93 1.93 98 1006.1
20260506224524 7 260 3.2 6.4 0.28 1.96 1.93 98 1006.1
20260506223015 7 267 6.4 19.3 0.30 1.93 1.91 97 1005.9
20260506221513 7 319 6.4 17.7 0.23 1.83 1.80 96 1006.0
20260506220010 7 315 9.7 24.1 0.15 1.73 1.70 96 1005.6
20260506214505 8 305 9.7 19.3 0.13 1.85 1.65 96 1005.1
20260506213001 9 5 8.0 16.1 0.10 1.80 1.60 96 1004.9
20260506211558 10 317 8.0 14.5 0.08 1.78 1.57 96 1004.7
20260506210119 10 317 4.8 12.9 0.05 1.75 1.55 95 1004.7
20260506204556 11 323 6.4 9.7 0.03 1.73 1.52 95 1004.6
20260506203141 13 311 4.8 8.0 0.00 1.70 1.50 94 1004.5
20260506201555 13 322 1.6 12.9 0.05 1.70 1.50 93 1004.3
20260506200055 14 293 4.8 16.1 0.13 1.70 1.50 89 1004.4
20260506194552 13 219 9.7 24.1 0.46 1.70 1.50 88 1004.7
20260506193051 13 209 8.0 20.9 0.66 1.70 1.50 90 1004.9
20260506191553 13 232 3.2 16.1 0.71 1.65 1.42 95 1005.1
20260506190054 13 360 0.0 6.4 0.66 1.57 1.37 98 1005.3
20260506184555 13 355 1.6 3.2 0.41 1.22 1.02 97 1005.4
20260506183047 13 355 3.2 12.9 0.28 1.02 0.81 97 1005.1
20260506181545 13 156 1.6 3.2 0.25 0.94 0.71 96 1005.4
20260506180046 13 153 4.8 8.0 0.25 0.91 0.71 96 1005.6
20260506174546 13 164 1.6 8.0 0.20 0.81 0.61 96 1005.8
20260506173052 13 171 3.2 8.0 0.15 0.71 0.53 96 1005.8
20260506171543 13 183 3.2 6.4 0.13 0.69 0.48 97 1005.6